Time,TemperatureF,DewpointF,PressureIn,WindDirection,WindDirectionDegrees,WindSpeedMPH,WindSpeedGustMPH,Humidity,HourlyPrecipIn,Conditions,Clouds,dailyrainin,SoftwareType,DateUTC
2013-06-09 00:03:00,68.0,67.0,30.03,North,0,0.0,0.0,97,0.00,,,0.05,,2013-06-09 04:03:00,
2013-06-09 00:12:00,68.0,67.0,30.03,North,0,0.0,0.0,97,0.00,,,0.05,,2013-06-09 04:12:00,
2013-06-09 00:23:00,68.0,67.0,30.03,North,0,0.0,0.0,97,0.00,,,0.05,,2013-06-09 04:23:00,
2013-06-09 00:33:00,68.0,67.0,30.03,North,0,0.0,0.0,97,0.00,,,0.05,,2013-06-09 04:33:00,
2013-06-09 00:43:00,68.0,67.0,30.03,North,0,0.0,0.0,97,0.00,,,0.05,,2013-06-09 04:43:00,
2013-06-09 00:52:00,68.0,67.0,30.03,North,0,0.0,0.0,97,0.00,,,0.05,,2013-06-09 04:52:00,
2013-06-09 01:02:00,68.0,67.0,30.03,North,0,0.0,0.0,97,0.00,,,0.05,,2013-06-09 05:02:00,
2013-06-09 01:12:00,68.0,67.0,30.03,North,0,0.0,0.0,97,0.00,,,0.05,,2013-06-09 05:12:00,
2013-06-09 01:22:00,68.0,67.0,30.03,North,0,0.0,0.0,97,0.00,,,0.05,,2013-06-09 05:22:00,
2013-06-09 01:32:00,68.0,67.0,30.03,North,0,0.0,0.0,97,0.00,,,0.05,,2013-06-09 05:32:00,
2013-06-09 01:42:00,68.0,67.0,30.03,North,0,0.0,0.0,97,0.00,,,0.05,,2013-06-09 05:42:00,
2013-06-09 01:52:00,68.0,67.0,30.03,North,0,0.0,0.0,97,0.00,,,0.05,,2013-06-09 05:52:00,
2013-06-09 02:02:00,68.0,67.0,30.03,North,0,0.0,0.0,97,0.00,,,0.03,,2013-06-09 06:02:00,
2013-06-09 02:12:00,68.0,67.0,30.03,North,0,0.0,0.0,97,0.00,,,0.03,,2013-06-09 06:12:00,
2013-06-09 02:22:00,68.0,67.0,30.03,North,0,0.0,0.0,97,0.00,,,0.03,,2013-06-09 06:22:00,
2013-06-09 02:32:00,67.0,66.0,30.02,North,0,0.0,0.0,97,0.00,,,0.02,,2013-06-09 06:32:00,
2013-06-09 02:42:00,67.0,66.0,30.02,North,0,0.0,0.0,97,0.00,,,0.02,,2013-06-09 06:42:00,
2013-06-09 02:52:00,67.0,66.0,30.02,North,0,0.0,0.0,97,0.00,,,0.02,,2013-06-09 06:52:00,
2013-06-09 03:02:00,67.0,66.0,30.02,North,0,0.0,0.0,97,0.00,,,0.02,,2013-06-09 07:02:00,
2013-06-09 03:12:00,67.0,66.0,30.02,North,0,0.0,0.0,97,0.00,,,0.02,,2013-06-09 07:12:00,
2013-06-09 03:22:00,67.0,66.0,30.02,North,0,0.0,0.0,97,0.00,,,0.02,,2013-06-09 07:22:00,
2013-06-09 03:32:00,67.0,66.0,30.02,North,0,0.0,0.0,97,0.00,,,0.02,,2013-06-09 07:32:00,
2013-06-09 03:42:00,67.0,66.0,30.02,North,0,0.0,0.0,97,0.00,,,0.02,,2013-06-09 07:42:00,
2013-06-09 03:53:00,67.0,66.0,30.02,North,0,0.0,0.0,97,0.00,,,0.01,,2013-06-09 07:53:00,
2013-06-09 04:02:00,67.0,66.0,30.02,North,0,0.0,0.0,97,0.00,,,0.01,,2013-06-09 08:02:00,
2013-06-09 04:12:00,67.0,66.0,30.02,North,0,0.0,0.0,97,0.00,,,0.01,,2013-06-09 08:12:00,
2013-06-09 04:22:00,67.0,66.0,30.02,North,0,0.0,0.0,97,0.00,,,0.01,,2013-06-09 08:22:00,
2013-06-09 04:32:00,66.0,65.0,30.03,North,0,0.0,0.0,97,0.00,,,0.01,,2013-06-09 08:32:00,
2013-06-09 04:42:00,66.0,65.0,30.03,North,0,0.0,0.0,97,0.00,,,0.01,,2013-06-09 08:42:00,
2013-06-09 04:53:00,66.0,65.0,30.03,North,0,0.0,0.0,97,0.00,,,0.01,,2013-06-09 08:53:00,
2013-06-09 05:02:00,66.0,65.0,30.04,North,0,0.0,0.0,97,0.00,,,0.01,,2013-06-09 09:02:00,
2013-06-09 05:12:00,66.0,65.0,30.04,North,0,0.0,0.0,97,0.00,,,0.01,,2013-06-09 09:12:00,
2013-06-09 05:22:00,66.0,65.0,30.04,North,0,0.0,0.0,97,0.00,,,0.01,,2013-06-09 09:22:00,
2013-06-09 05:33:00,66.0,65.0,30.05,North,0,0.0,0.0,97,0.00,,,0.01,,2013-06-09 09:33:00,
2013-06-09 05:43:00,66.0,65.0,30.05,North,0,0.0,0.0,97,0.00,,,0.01,,2013-06-09 09:43:00,
2013-06-09 05:52:00,66.0,65.0,30.05,North,0,0.0,0.0,97,0.00,,,0.01,,2013-06-09 09:52:00,
2013-06-09 06:03:00,66.0,65.0,30.06,North,0,0.0,0.0,97,0.00,,,0.01,,2013-06-09 10:03:00,
2013-06-09 06:12:00,66.0,65.0,30.06,North,0,0.0,0.0,97,0.00,,,0.01,,2013-06-09 10:12:00,
2013-06-09 06:23:00,66.0,65.0,30.06,North,0,0.0,0.0,97,0.00,,,0.01,,2013-06-09 10:23:00,
2013-06-09 06:32:00,66.0,65.0,30.06,North,0,0.0,0.0,97,0.00,,,0.01,,2013-06-09 10:32:00,
2013-06-09 06:43:00,66.0,65.0,30.06,North,0,0.0,0.0,97,0.00,,,0.01,,2013-06-09 10:43:00,
2013-06-09 06:52:00,66.0,65.0,30.06,North,0,0.0,0.0,97,0.00,,,0.01,,2013-06-09 10:52:00,
2013-06-09 07:02:00,66.0,65.0,30.08,North,0,0.0,0.0,98,0.00,,,0.01,,2013-06-09 11:02:00,
2013-06-09 07:12:00,66.0,65.0,30.08,North,0,0.0,0.0,98,0.00,,,0.01,,2013-06-09 11:12:00,
2013-06-09 07:22:00,67.0,66.0,30.07,North,0,0.0,0.0,98,0.00,,,0.01,,2013-06-09 11:22:00,
2013-06-09 07:32:00,67.0,66.0,30.08,North,0,0.0,0.0,98,0.00,,,0.01,,2013-06-09 11:32:00,
2013-06-09 07:42:00,67.0,66.0,30.08,North,0,0.0,0.0,98,0.00,,,0.01,,2013-06-09 11:42:00,
2013-06-09 07:52:00,67.0,66.0,30.08,North,0,0.0,0.0,98,0.00,,,0.01,,2013-06-09 11:52:00,
2013-06-09 08:02:00,68.0,68.0,30.09,North,0,0.0,0.0,99,0.00,,,0.01,,2013-06-09 12:02:00,
2013-06-09 08:12:00,68.0,68.0,30.09,North,0,0.0,0.0,99,0.00,,,0.01,,2013-06-09 12:12:00,
2013-06-09 08:22:00,68.0,68.0,30.09,North,0,0.0,0.0,99,0.00,,,0.01,,2013-06-09 12:22:00,
2013-06-09 08:32:00,70.0,70.0,30.09,North,0,0.0,0.0,99,0.00,,,0.01,,2013-06-09 12:32:00,
2013-06-09 08:42:00,70.0,70.0,30.09,North,0,0.0,0.0,99,0.00,,,0.01,,2013-06-09 12:42:00,
2013-06-09 08:53:00,70.0,70.0,30.09,North,0,0.0,0.0,99,0.00,,,0.01,,2013-06-09 12:53:00,
2013-06-09 09:02:00,70.0,70.0,30.10,North,0,0.0,1.0,99,0.00,,,0.01,,2013-06-09 13:02:00,
2013-06-09 09:12:00,70.0,70.0,30.10,North,0,0.0,1.0,99,0.00,,,0.01,,2013-06-09 13:12:00,
2013-06-09 09:22:00,71.0,71.0,30.10,North,0,0.0,3.0,99,0.00,,,0.01,,2013-06-09 13:22:00,
2013-06-09 09:32:00,73.0,72.0,30.10,North,0,0.0,2.0,97,0.00,,,0.01,,2013-06-09 13:32:00,
2013-06-09 09:42:00,75.0,72.0,30.10,North,0,0.0,3.0,90,0.00,,,0.01,,2013-06-09 13:42:00,
2013-06-09 09:52:00,75.0,72.0,30.10,North,0,0.0,3.0,90,0.00,,,0.01,,2013-06-09 13:52:00,
2013-06-09 10:02:00,76.0,72.0,30.10,North,0,0.0,4.0,86,0.00,,,0.00,,2013-06-09 14:02:00,
2013-06-09 10:12:00,76.0,72.0,30.10,North,0,0.0,4.0,86,0.00,,,0.00,,2013-06-09 14:12:00,
2013-06-09 10:22:00,76.0,72.0,30.10,North,0,0.0,4.0,86,0.00,,,0.00,,2013-06-09 14:22:00,
2013-06-09 10:32:00,78.0,73.0,30.09,North,0,0.0,0.0,85,0.00,,,0.00,,2013-06-09 14:32:00,
2013-06-09 10:42:00,78.0,73.0,30.09,North,0,0.0,0.0,85,0.00,,,0.00,,2013-06-09 14:42:00,
2013-06-09 10:52:00,79.0,73.0,30.08,North,0,0.0,0.0,81,0.00,,,0.00,,2013-06-09 14:52:00,
2013-06-09 11:02:00,80.0,74.0,30.08,North,0,0.0,2.0,82,0.00,,,0.00,,2013-06-09 15:02:00,
2013-06-09 11:12:00,80.0,74.0,30.08,North,0,0.0,2.0,82,0.00,,,0.00,,2013-06-09 15:12:00,
2013-06-09 11:22:00,81.0,72.0,30.08,North,0,0.0,4.0,73,0.00,,,0.00,,2013-06-09 15:22:00,
2013-06-09 11:33:00,81.0,72.0,30.08,North,0,0.0,4.0,73,0.00,,,0.00,,2013-06-09 15:33:00,
2013-06-09 11:43:00,81.0,72.0,30.08,North,0,0.0,4.0,73,0.00,,,0.00,,2013-06-09 15:43:00,
2013-06-09 11:53:00,81.0,72.0,30.08,North,0,0.0,4.0,73,0.00,,,0.00,,2013-06-09 15:53:00,
2013-06-09 12:03:00,83.0,74.0,30.08,North,0,0.0,2.0,74,0.00,,,0.00,,2013-06-09 16:03:00,
2013-06-09 12:13:00,83.0,74.0,30.08,North,0,0.0,2.0,74,0.00,,,0.00,,2013-06-09 16:13:00,
2013-06-09 12:23:00,83.0,73.0,30.08,North,0,0.0,5.0,71,0.00,,,0.00,,2013-06-09 16:23:00,
2013-06-09 12:33:00,82.0,74.0,30.08,North,0,0.0,2.0,76,0.00,,,0.00,,2013-06-09 16:33:00,
2013-06-09 12:42:00,82.0,74.0,30.08,North,0,0.0,2.0,76,0.00,,,0.00,,2013-06-09 16:42:00,
2013-06-09 12:53:00,84.0,73.0,30.07,SE,127,1.0,4.0,69,0.00,,,0.00,,2013-06-09 16:53:00,
2013-06-09 13:03:00,83.0,73.0,30.07,WNW,288,2.0,4.0,73,0.00,,,0.00,,2013-06-09 17:03:00,
2013-06-09 13:12:00,83.0,73.0,30.07,WNW,288,2.0,4.0,73,0.00,,,0.00,,2013-06-09 17:12:00,
2013-06-09 13:22:00,84.0,75.0,30.06,North,0,0.0,2.0,75,0.00,,,0.00,,2013-06-09 17:22:00,
2013-06-09 13:32:00,84.0,74.0,30.06,North,0,0.0,3.0,73,0.00,,,0.00,,2013-06-09 17:32:00,
2013-06-09 13:42:00,84.0,74.0,30.06,North,0,0.0,3.0,73,0.00,,,0.00,,2013-06-09 17:42:00,
2013-06-09 13:52:00,84.0,74.0,30.05,WNW,284,1.0,4.0,72,0.00,,,0.00,,2013-06-09 17:52:00,
2013-06-09 14:02:00,85.0,74.0,30.04,North,0,0.0,2.0,70,0.00,,,0.00,,2013-06-09 18:02:00,
2013-06-09 14:12:00,85.0,74.0,30.04,North,0,0.0,2.0,70,0.00,,,0.00,,2013-06-09 18:12:00,
2013-06-09 14:22:00,86.0,76.0,30.04,North,0,0.0,2.0,73,0.00,,,0.00,,2013-06-09 18:22:00,
2013-06-09 14:33:00,85.0,72.0,30.04,West,263,1.0,4.0,65,0.00,,,0.00,,2013-06-09 18:33:00,
2013-06-09 14:42:00,85.0,72.0,30.04,West,263,1.0,4.0,65,0.00,,,0.00,,2013-06-09 18:42:00,
2013-06-09 14:52:00,84.0,74.0,30.03,North,0,0.0,3.0,71,0.00,,,0.00,,2013-06-09 18:52:00,
2013-06-09 15:02:00,84.0,76.0,30.03,North,0,0.0,2.0,77,0.00,,,0.00,,2013-06-09 19:02:00,
2013-06-09 15:12:00,84.0,76.0,30.03,North,0,0.0,2.0,77,0.00,,,0.00,,2013-06-09 19:12:00,
2013-06-09 15:22:00,84.0,76.0,30.03,North,0,0.0,2.0,77,0.00,,,0.00,,2013-06-09 19:22:00,
2013-06-09 15:32:00,86.0,75.0,30.02,North,0,0.0,1.0,70,0.00,,,0.00,,2013-06-09 19:32:00,
2013-06-09 15:42:00,86.0,75.0,30.02,North,0,0.0,1.0,70,0.00,,,0.00,,2013-06-09 19:42:00,
2013-06-09 15:52:00,86.0,74.0,30.01,North,0,0.0,3.0,67,0.00,,,0.00,,2013-06-09 19:52:00,
2013-06-09 16:03:00,84.0,73.0,30.01,West,269,1.0,6.0,69,0.00,,,0.00,,2013-06-09 20:03:00,
2013-06-09 16:12:00,84.0,73.0,30.01,West,269,1.0,6.0,69,0.00,,,0.00,,2013-06-09 20:12:00,
2013-06-09 16:22:00,84.0,73.0,30.01,West,269,1.0,6.0,69,0.00,,,0.00,,2013-06-09 20:22:00,
2013-06-09 16:32:00,85.0,75.0,29.99,North,0,0.0,7.0,73,0.00,,,0.00,,2013-06-09 20:32:00,
2013-06-09 16:42:00,85.0,75.0,29.99,North,0,0.0,7.0,73,0.00,,,0.00,,2013-06-09 20:42:00,
2013-06-09 16:52:00,85.0,76.0,29.99,North,0,0.0,4.0,74,0.00,,,0.00,,2013-06-09 20:52:00,
2013-06-09 17:03:00,85.0,73.0,30.00,WNW,295,1.0,6.0,68,0.00,,,0.00,,2013-06-09 21:03:00,
2013-06-09 17:12:00,84.0,73.0,30.00,North,0,0.0,7.0,69,0.00,,,0.00,,2013-06-09 21:12:00,
2013-06-09 17:22:00,84.0,73.0,30.00,North,0,0.0,7.0,69,0.00,,,0.00,,2013-06-09 21:22:00,
2013-06-09 17:33:00,84.0,73.0,30.00,West,271,2.0,7.0,70,0.00,,,0.00,,2013-06-09 21:33:00,
2013-06-09 17:43:00,84.0,73.0,30.00,West,271,2.0,7.0,70,0.00,,,0.00,,2013-06-09 21:43:00,
2013-06-09 17:53:00,84.0,75.0,30.00,North,0,0.0,5.0,75,0.00,,,0.00,,2013-06-09 21:53:00,
2013-06-09 18:02:00,82.0,73.0,30.00,North,0,0.0,3.0,75,0.00,,,0.00,,2013-06-09 22:02:00,
2013-06-09 18:13:00,82.0,74.0,30.00,North,0,0.0,3.0,78,0.00,,,0.00,,2013-06-09 22:13:00,
2013-06-09 18:23:00,82.0,74.0,30.00,North,0,0.0,3.0,78,0.00,,,0.00,,2013-06-09 22:23:00,
2013-06-09 18:33:00,81.0,74.0,30.01,North,0,0.0,3.0,79,0.00,,,0.00,,2013-06-09 22:33:00,
2013-06-09 18:42:00,81.0,74.0,30.01,North,0,0.0,3.0,79,0.00,,,0.00,,2013-06-09 22:42:00,
2013-06-09 18:52:00,81.0,74.0,30.01,North,0,0.0,3.0,79,0.00,,,0.00,,2013-06-09 22:52:00,
2013-06-09 19:02:00,80.0,74.0,30.02,North,0,0.0,1.0,81,0.00,,,0.00,,2013-06-09 23:02:00,
2013-06-09 19:12:00,80.0,74.0,30.02,North,0,0.0,1.0,83,0.00,,,0.00,,2013-06-09 23:12:00,
2013-06-09 19:22:00,80.0,74.0,30.02,North,0,0.0,1.0,83,0.00,,,0.00,,2013-06-09 23:22:00,
2013-06-09 19:32:00,80.0,74.0,30.01,North,0,0.0,0.0,83,0.00,,,0.00,,2013-06-09 23:32:00,
2013-06-09 19:43:00,80.0,74.0,30.01,North,0,0.0,0.0,83,0.00,,,0.00,,2013-06-09 23:43:00,
2013-06-09 19:52:00,79.0,74.0,30.01,North,0,0.0,0.0,85,0.00,,,0.00,,2013-06-09 23:52:00,
2013-06-09 20:02:00,78.0,74.0,30.01,North,0,0.0,0.0,87,0.00,,,0.00,,2013-06-10 00:02:00,
2013-06-09 20:13:00,78.0,74.0,30.01,North,0,0.0,0.0,87,0.00,,,0.00,,2013-06-10 00:13:00,
2013-06-09 20:22:00,78.0,74.0,30.02,North,0,0.0,0.0,88,0.00,,,0.00,,2013-06-10 00:22:00,
2013-06-09 20:32:00,77.0,74.0,30.01,North,0,0.0,0.0,89,0.00,,,0.00,,2013-06-10 00:32:00,
2013-06-09 20:42:00,77.0,74.0,30.01,North,0,0.0,0.0,89,0.00,,,0.00,,2013-06-10 00:42:00,
2013-06-09 20:52:00,77.0,73.0,30.02,North,0,0.0,3.0,88,0.00,,,0.00,,2013-06-10 00:52:00,
2013-06-09 21:03:00,77.0,72.0,30.02,West,269,2.0,7.0,86,0.00,,,0.00,,2013-06-10 01:03:00,
2013-06-09 21:12:00,77.0,72.0,30.02,West,269,2.0,7.0,86,0.00,,,0.00,,2013-06-10 01:12:00,
2013-06-09 21:22:00,76.0,72.0,30.03,North,0,0.0,0.0,87,0.00,,,0.00,,2013-06-10 01:22:00,
2013-06-09 21:32:00,76.0,72.0,30.03,North,0,0.0,2.0,87,0.00,,,0.00,,2013-06-10 01:32:00,
2013-06-09 21:43:00,76.0,72.0,30.03,North,0,0.0,2.0,87,0.00,,,0.00,,2013-06-10 01:43:00,
2013-06-09 21:52:00,76.0,72.0,30.03,North,0,0.0,2.0,87,0.00,,,0.00,,2013-06-10 01:52:00,
2013-06-09 22:02:00,74.0,69.0,30.04,North,0,0.0,3.0,85,0.00,,,0.00,,2013-06-10 02:02:00,
2013-06-09 22:12:00,74.0,69.0,30.04,North,0,0.0,3.0,85,0.00,,,0.00,,2013-06-10 02:12:00,
2013-06-09 22:22:00,74.0,69.0,30.04,North,0,0.0,3.0,85,0.00,,,0.00,,2013-06-10 02:22:00,
2013-06-09 22:32:00,74.0,69.0,30.04,North,0,0.0,3.0,85,0.00,,,0.00,,2013-06-10 02:32:00,
2013-06-09 22:42:00,74.0,69.0,30.04,North,0,0.0,3.0,85,0.00,,,0.00,,2013-06-10 02:42:00,
2013-06-09 22:52:00,73.0,70.0,30.04,North,0,0.0,2.0,90,0.00,,,0.00,,2013-06-10 02:52:00,
2013-06-09 23:02:00,73.0,71.0,30.04,North,0,0.0,1.0,92,0.00,,,0.00,,2013-06-10 03:02:00,
2013-06-09 23:12:00,73.0,71.0,30.04,North,0,0.0,1.0,92,0.00,,,0.00,,2013-06-10 03:12:00,
2013-06-09 23:22:00,73.0,71.0,30.04,North,0,0.0,1.0,92,0.00,,,0.00,,2013-06-10 03:22:00,
2013-06-09 23:33:00,73.0,71.0,30.04,North,0,0.0,1.0,93,0.00,,,0.00,,2013-06-10 03:33:00,
2013-06-09 23:43:00,73.0,71.0,30.04,North,0,0.0,1.0,93,0.00,,,0.00,,2013-06-10 03:43:00,
2013-06-09 23:53:00,73.0,71.0,30.03,North,0,0.0,1.0,93,0.00,,,0.00,,2013-06-10 03:53:00,